Вернуться в каталог

AUREOLE 3

АктивенНаукаPO
NORAD 12848·PAYLOAD·🇫🇷 France

Запущен Sep 21, 1981 с Plesetsk Cosmodrome

Loading…

Ближайшие Пролёты (ближайшие 24 часа)

TLE

СвежийSource: Space-Track

Эпоха: Sep 14, 2026, 13:53 UTC

1 12848U 81094A   26257.57877170  .00004727  00000-0  21419-3 0  9999
2 12848  82.4661 206.5396 0453056 273.0796  81.8674 14.60246600273296

Отслеживайте AUREOLE 3 в реальном времени с AllMySat

Download on the App Store